Location: Plzen
(49.7500°N, 13.3670°E)
Time: 05:16:09
(UTC+02:00)

ISS - Pass Details

Date: 23 May 2021
Orbit: 417 x 422 km, 51.6° (Epoch: 13 June)

Event Time Altitude Azimuth Distance (km) Brightness Sun altitude
Rises 22:09:42 0° 279° (W) 2,365 0.9 -9.7°
Reaches altitude 10° 22:11:49 10° 283° (WNW) 1,502 -0.1 -9.9°
Maximum altitude 22:15:10 62° 5° (N) 478 -3.3 -10.3°
Drops below altitude 10° 22:18:31 10° 87° (E) 1,503 -1.3 -10.6°
Enters shadow 22:19:24 - 89° (E) 1,860 -0.8 -10.7°
